Temp_Advection
nan nan nan nan nan nan nan nan nan nan nan nan nan nan nan nan nan nan nan nan nan nan nan nan nan nan nan nan nan nan nan nan nan nan nan nan nan nan nan nan nan nan nan nan nan nan nan
nan -0 0 0 0 0 0 -0 -0 -0 -0 -0 0 0 0 0 0 0 0 -0 -0 0 0 0 0 0 -0 0 0 0 0 -0 0 0 -0 -0 -0 -0 -0 -0 -0 -0 -0 -0 -0 -0 nan
nan -0 0 -0 0 0 -0 -0 -0 -0 -0 -0 -0 0 0 0 0 0 0 -0 -0 -0 0 0 0 0 -0 -0 0 0 0 0 0 0 -0 -0 -0 -0 -0 -0 0 0 -0 -1 -0 -0 nan
nan -0 -0 0 0 -0 -0 -0 0 -0 0 -0 -0 -0 0 0 0 0 0 0 -0 -0 0 0 0 -0 -0 -0 0 0 0 0 0 0 0 0 -0 -0 -0 -0 -0 -0 0 -0 -0 -0 nan
nan 0 0 0 -0 -0 0 0 -0 -0 -0 0 -0 -0 -0 0 0 0 0 0 0 0 0 0 0 -0 -0 0 0 0 0 0 0 0 0 0 0 -0 0 0 0 0 -0 -1 -0 -0 nan
nan 0 -0 -0 -0 -0 -0 0 -0 -0 -0 0 0 0 0 0 0 -0 -0 0 0 0 -0 0 0 0 -0 0 0 0 0 0 0 -0 0 -0 -0 -0 -0 0 0 0 0 0 -0 -0 nan
nan -0 -0 -0 0 -0 -0 -0 -0 -0 0 0 0 0 0 0 -0 0 -0 -0 -0 -0 -0 -0 -0 -0 0 0 0 0 0 0 0 -0 -0 -0 0 0 0 0 0 0 0 -0 1 0 nan
nan -0 -0 -0 -0 -0 -0 -0 -0 -0 -0 -0 -0 -0 -0 0 -0 -0 -0 -0 -0 -0 -0 -0 0 0 -0 -0 -0 -0 0 -0 0 -0 -0 0 -0 0 0 0 0 0 0 -0 -0 -0 nan
nan -0 -0 -0 -0 -0 -0 -0 -0 -0 -0 -0 -0 -0 -0 0 -0 -0 -0 0 0 0 -0 -0 0 0 0 -0 -0 0 0 -0 -0 -0 -0 -0 -0 0 0 0 0 0 0 0 -0 0 nan
nan -0 -0 -0 -0 -0 -0 -0 -0 -0 -0 -0 -0 -0 -0 -0 -0 -0 -0 0 0 -0 -0 -0 -0 0 0 -0 -0 0 0 -0 -0 0 0 -0 -0 0 -0 -0 -0 -0 0 0 0 0 nan
nan -0 -0 -0 -0 -0 -0 0 -0 -0 -0 -0 -0 -0 -0 -0 -0 -0 -0 0 0 -0 0 -0 -0 0 0 -0 0 0 0 0 -0 -0 0 -0 -0 -0 -0 -0 -0 0 -0 0 0 0 nan
nan -0 -0 -0 -0 -0 -0 -0 -0 -0 -0 0 -0 -0 -0 -0 -0 -0 -0 -0 -0 0 -0 -0 -0 -0 0 -0 -0 0 0 -0 -0 -0 0 -1 -0 -0 0 -0 -0 0 -0 -1 0 0 nan
nan -1 -1 -1 -0 -0 -0 -0 -0 -0 -0 0 -0 0 0 0 0 -0 -0 -0 -0 0 -0 -0 0 -0 -0 -0 0 -0 0 0 -0 0 -0 -1 -0 -0 -0 -0 0 -0 0 -0 -0 -0 nan
nan -0 -1 -1 -1 -1 -1 -1 -0 -0 -0 -0 -0 -0 0 0 0 0 -0 -0 0 -0 0 -0 0 0 -0 0 0 0 0 0 -0 0 0 -0 -1 -0 -0 0 0 -0 0 -0 0 0 nan
nan -0 -0 -1 -0 -0 -1 -1 -1 -0 -1 -1 -0 -0 -0 0 0 0 -0 -0 -1 -0 0 -0 0 -0 -0 -0 0 -0 -0 0 -0 -0 0 0 -0 0 -0 -0 0 0 -0 0 0 0 nan
nan -0 0 0 -0 -1 -1 -1 -1 -1 -0 -1 -1 -0 -0 -0 0 0 0 -0 -0 -0 0 0 -0 0 -0 0 0 -0 0 -0 -0 -0 0 0 -0 -0 -0 0 0 -0 0 -0 0 -0 nan
nan -1 -0 -0 0 0 -0 -1 -1 -2 -1 -1 -0 -0 -0 0 0 -0 -0 -1 0 0 0 0 0 0 0 0 0 -0 0 -0 0 -0 0 -0 -0 -1 -0 0 -0 0 -0 0 -0 -0 nan
nan -0 -1 -1 -1 -0 0 -0 -1 -1 -2 -1 -0 -0 -0 0 -0 -0 -0 -0 0 0 0 0 -0 -0 0 0 0 -0 -0 0 -0 -0 0 -0 0 -0 -1 0 0 0 0 0 -0 0 nan
nan -1 -1 -0 -0 -1 -0 0 0 -0 -1 -1 -0 -0 0 1 0 -0 -0 0 0 0 -0 -0 -0 -0 0 0 0 -0 0 0 0 0 -0 -0 0 -0 -0 -0 0 -0 0 0 0 0 nan
nan -1 -1 -1 -1 -1 -1 -0 0 -0 0 -0 -0 -0 0 0 -1 -0 -0 -0 0 0 -0 -0 0 0 0 0 -0 0 0 -0 0 0 0 0 -0 -0 0 -0 -0 -0 -0 -0 0 0 nan
nan -2 -1 -1 -1 -1 -1 -1 -0 -0 0 0 -0 -1 -0 -0 -0 -1 -0 -0 0 0 0 0 0 0 0 -0 -0 0 -0 0 -0 0 0 0 0 -0 -0 -0 0 -0 -0 0 0 -0 nan
nan -1 -1 -1 -1 -1 -2 -1 -1 -0 0 -0 -0 -0 -0 -0 -1 0 0 -0 -0 0 -1 -0 -0 -0 0 -0 -0 -0 -0 -0 0 -0 0 0 -0 -0 -0 -1 0 -0 -0 0 -0 -0 nan
nan -0 -0 -0 -1 -0 -1 -1 -1 -0 0 -0 -0 -0 -1 -1 -1 -0 -0 -0 -0 -0 -0 -0 -0 0 -0 -1 -0 0 0 0 0 -0 -0 -0 -0 -0 -0 -0 -0 -0 -0 -0 -0 -0 nan
nan -0 -0 -0 -0 -0 -1 -1 -1 -0 0 -0 -0 -2 -1 -1 -0 -1 -1 -0 0 0 -0 -0 0 0 -0 0 0 0 0 0 0 0 0 0 -0 0 -0 -0 0 -0 -0 -0 -0 -0 nan
nan -0 -0 -0 0 -0 -0 -1 -0 -1 -0 -1 -0 -1 -1 -1 -1 -1 -1 -0 -2 -0 0 -0 0 0 0 0 0 0 0 0 0 -0 0 0 0 0 -0 -0 -1 0 -0 -0 0 -0 nan
nan -0 -0 -0 -0 0 0 -0 -0 -0 -0 -0 -1 -1 -1 -1 -2 -1 -2 -1 -0 -0 -0 0 1 1 1 0 0 0 -0 0 0 -0 -0 0 0 0 0 -0 -0 -0 0 0 0 0 nan
nan 0 -0 0 -0 -0 0 0 -0 -0 -0 -0 -1 -1 -1 -1 -3 -2 -1 -1 -1 -1 -0 1 0 0 1 0 0 -0 -0 0 -0 -0 -0 0 0 0 0 -0 -1 0 0 0 0 0 nan
nan 1 0 0 -0 -0 0 0 -0 -0 -0 -1 -1 -1 -1 -1 -3 -3 -2 -1 -2 -2 0 0 -1 -0 0 0 -0 -0 0 0 -0 -0 -1 -0 -0 -0 -0 -0 -1 0 -0 0 0 -0 nan
nan nan nan nan nan nan nan nan nan nan nan nan nan nan nan nan nan nan nan nan nan nan nan nan nan nan nan nan nan nan nan nan nan nan nan nan nan nan nan nan nan nan nan nan nan nan nan
Wind_Speed
8 9 9 10 10 11 12 13 14 15 16 13 9 7 7 8 9 11 12 10 9 10 12 13 13 11 11 6 6 11 13 12 13 12 11 11 11 11 8 7 12 9 10 13 12 14 17
6 7 8 8 9 10 11 12 14 16 18 18 12 7 8 10 10 10 11 11 9 9 10 12 10 9 9 5 11 11 11 11 10 10 9 9 7 11 8 9 8 13 16 17 20 17 18
4 5 6 7 7 9 10 12 14 15 18 19 16 9 8 10 12 10 9 10 8 8 9 10 10 10 5 5 11 10 12 10 12 9 7 6 6 6 10 10 10 14 14 13 17 16 14
3 3 4 5 6 7 9 11 13 15 18 20 18 10 12 12 11 11 9 8 7 7 8 10 9 7 6 8 10 10 11 10 11 11 8 7 5 8 6 8 8 8 10 5 5 7 8
1 1 3 4 5 6 7 10 12 15 17 20 20 11 14 12 11 10 8 5 5 6 8 9 6 5 4 9 8 12 10 8 11 8 9 7 6 5 7 4 4 2 6 11 6 6 4
5 6 6 7 8 9 9 11 13 15 17 19 21 14 15 12 11 8 5 4 6 8 9 7 4 3 4 7 13 13 9 10 6 9 10 6 6 5 4 3 8 9 7 8 11 6 7
7 7 7 8 9 10 10 11 12 14 16 18 20 15 16 13 10 8 6 4 5 3 4 5 4 6 8 14 12 6 7 8 6 9 4 5 2 4 7 6 8 7 12 12 10 2 6
7 7 7 7 8 9 10 11 12 13 15 17 18 15 15 13 10 9 6 4 4 4 7 10 10 11 10 10 6 7 8 4 7 7 11 3 7 4 6 7 8 10 12 10 5 0 8
7 7 7 8 8 8 9 11 12 13 15 16 17 16 14 13 7 9 7 4 4 5 4 3 5 6 6 7 5 4 6 7 7 6 7 6 8 5 8 10 10 11 9 8 10 7 2
6 6 7 8 9 9 10 11 12 13 14 15 16 16 13 11 5 9 6 6 4 3 3 3 2 2 4 6 4 6 6 3 4 5 6 8 1 6 8 12 4 8 3 7 11 8 2
6 7 8 9 10 11 11 12 12 13 14 15 15 15 14 10 7 5 6 4 3 1 3 3 3 3 4 3 11 3 5 3 5 9 1 8 6 6 6 4 4 9 10 14 10 8 5
5 6 7 7 9 10 11 12 12 12 13 14 14 15 14 10 6 7 5 3 2 3 3 1 1 2 4 7 3 4 5 6 9 5 7 12 9 1 4 10 8 11 11 15 6 3 2
10 10 9 8 9 9 10 11 13 13 13 13 14 14 14 10 4 6 4 1 2 1 1 2 3 3 5 3 3 1 3 6 3 7 4 7 3 4 0 6 2 5 7 4 5 3 2
15 15 14 13 12 12 12 12 12 12 13 13 13 14 13 11 6 3 1 1 1 4 2 2 1 7 4 4 2 2 4 3 2 4 6 3 7 1 2 2 4 5 3 2 4 2 5
17 17 18 18 17 16 16 16 16 16 15 15 15 15 13 8 4 2 1 0 5 2 1 3 4 3 4 2 2 4 4 0 3 5 3 5 5 2 2 1 1 5 2 0 3 5 2
19 19 20 20 18 18 18 19 18 17 16 17 16 15 11 4 3 4 1 5 2 1 2 2 2 1 3 4 2 2 2 2 1 3 3 2 6 3 1 2 5 3 6 3 2 4 5
21 20 20 21 21 20 16 19 19 19 16 16 13 7 5 3 4 3 3 5 2 5 5 4 1 2 5 2 1 4 4 2 1 4 2 4 3 6 5 3 3 2 2 3 1 2 1
20 20 19 19 19 19 20 19 16 17 16 12 6 4 3 4 2 5 3 3 2 5 5 4 3 3 4 0 3 3 3 0 4 1 3 2 3 5 7 5 4 2 3 2 1 4 3
14 16 17 19 18 18 17 16 17 13 13 12 6 8 8 10 4 4 4 4 4 6 5 6 6 6 3 5 3 6 3 2 5 3 2 2 3 5 2 2 1 3 2 2 4 2 5
15 16 16 16 16 17 16 15 13 11 11 9 4 3 5 12 12 3 4 6 5 7 4 6 2 4 4 5 7 3 4 4 6 4 3 1 3 5 5 7 6 7 6 7 3 2 5
18 17 16 16 15 15 16 14 13 12 11 8 7 7 7 3 7 11 6 5 4 5 8 12 4 10 8 5 5 6 5 3 5 5 3 2 4 5 8 11 12 15 16 10 9 8 4
18 17 16 18 18 16 16 14 12 13 13 15 6 4 6 12 17 9 8 6 12 7 10 6 7 10 13 6 7 4 6 5 3 5 5 4 4 5 7 12 8 8 16 13 8 8 8
17 13 14 16 16 15 15 14 12 11 14 7 12 25 16 9 9 10 11 10 9 10 12 19 16 6 11 19 17 7 4 5 1 6 7 6 3 3 6 7 12 7 5 4 3 2 2
17 17 16 17 19 20 23 18 16 12 9 12 15 18 10 10 11 16 16 17 13 15 16 8 14 9 5 9 7 4 6 8 9 8 8 3 3 2 4 7 3 2 4 4 5 6 6
16 16 16 15 17 17 19 18 16 16 12 15 14 19 11 11 20 23 23 23 31 27 16 15 13 8 10 8 2 3 3 2 3 3 2 6 2 2 2 2 8 3 1 1 2 2 4
21 20 17 18 19 20 21 20 20 15 12 17 20 16 19 15 25 28 26 25 15 15 14 12 11 12 11 4 3 6 6 6 5 3 1 2 4 3 2 3 4 3 4 1 1 3 3
23 21 20 20 21 20 22 23 20 22 18 20 24 21 22 21 58 34 17 15 31 26 12 13 10 10 16 4 5 5 5 6 6 8 6 4 3 6 6 5 7 3 5 4 4 2 4
23 23 23 23 23 25 24 25 22 23 25 25 27 22 24 29 57 40 34 48 41 29 14 8 6 5 4 4 5 5 5 7 5 7 8 8 7 4 4 4 9 10 5 5 8 7 4
23 22 23 25 25 24 24 26 24 24 25 26 34 26 28 37 52 26 46 63 42 40 24 17 13 9 15 4 4 4 3 4 6 4 5 4 7 5 8 5 7 7 5 11 9 8 6
Wind_Direction
80 73 65 55 49 45 42 36 29 24 18 9 344 322 321 317 299 284 277 279 299 327 346 347 352 358 26 16 357 341 356 5 17 6 356 352 342 356 352 323 324 280 317 320 321 301 286
71 63 59 52 44 38 35 30 26 20 15 9 360 342 331 323 314 300 282 271 276 304 330 342 334 342 5 21 354 5 360 11 352 12 6 5 350 330 302 314 283 319 309 298 291 275 272
67 60 49 42 36 34 28 22 19 16 14 10 2 353 342 330 319 310 294 276 265 284 314 333 330 335 325 301 349 1 356 346 345 348 348 342 334 341 323 305 331 300 289 283 268 249 246
65 48 38 34 25 25 21 15 12 10 9 8 5 357 351 340 331 322 309 283 262 277 304 325 329 329 280 306 336 352 346 340 317 328 318 316 332 302 262 282 299 303 287 294 309 279 253
6 22 20 11 8 12 12 9 7 5 5 4 1 358 355 349 343 336 326 297 273 284 300 316 328 343 286 331 347 319 327 324 311 304 296 294 297 261 284 253 285 342 289 306 310 303 261
349 346 357 357 358 357 1 2 3 1 2 2 1 360 358 355 353 355 357 328 305 295 296 303 287 277 249 319 309 314 320 321 328 313 302 232 226 248 215 259 323 324 322 305 307 258 229
356 354 357 356 353 357 358 356 358 357 359 1 3 3 2 357 356 358 358 355 348 324 299 250 265 268 296 300 318 314 305 320 280 277 261 187 310 335 343 318 312 309 294 292 307 354 301
357 352 350 351 353 352 352 353 351 355 355 360 3 3 2 4 358 1 3 29 337 306 309 259 272 276 297 316 309 264 307 299 321 293 293 266 253 24 304 291 274 265 267 272 266 212 10
356 352 348 347 350 349 348 347 347 349 352 355 359 0 360 3 12 3 12 1 334 329 267 249 253 273 263 310 289 291 313 303 259 289 327 296 264 356 302 308 296 308 288 325 318 315 197
353 351 346 344 341 342 343 344 345 346 347 351 355 356 357 0 20 356 6 346 338 339 294 178 179 240 320 320 268 231 282 306 281 281 322 269 224 283 303 294 19 303 38 298 309 328 281
1 350 347 345 344 342 339 339 341 343 344 346 349 352 352 357 348 1 337 342 343 32 30 211 162 267 271 249 308 240 282 218 259 292 345 258 329 342 298 344 348 257 322 291 276 280 321
334 332 328 331 335 334 334 333 334 335 338 339 343 344 345 344 352 347 352 354 30 34 279 195 211 244 284 200 227 295 267 258 264 280 231 247 250 190 294 310 255 284 291 294 191 245 356
322 321 316 311 312 316 320 323 325 328 329 333 334 337 337 333 313 333 351 1 29 121 250 359 331 340 332 269 306 146 315 302 7 352 335 310 277 147 140 303 127 326 340 333 357 7 238
307 307 309 308 310 309 310 310 311 315 318 320 324 327 327 318 308 309 13 354 92 267 317 139 235 288 254 16 214 264 283 283 143 297 292 325 332 204 148 353 300 303 350 113 306 351 288
289 293 299 299 300 304 310 310 309 312 316 315 319 321 315 313 279 220 84 286 222 228 129 349 298 279 183 179 264 325 234 260 46 29 342 340 288 175 181 348 326 329 11 25 278 274 26
296 297 295 294 292 295 299 303 306 307 316 319 324 325 298 294 188 173 180 239 251 85 134 190 224 189 297 3 296 300 273 76 37 29 8 326 299 298 134 226 240 263 326 25 305 339 325
291 296 295 294 292 287 286 297 300 304 311 319 320 325 273 242 184 179 213 234 208 184 185 198 227 239 241 286 296 283 283 141 139 135 299 304 238 290 296 192 22 284 314 278 154 179 249
288 288 291 293 297 294 286 282 296 306 307 318 308 264 255 198 236 224 233 222 210 178 198 222 250 241 213 146 267 267 262 189 129 58 264 82 301 284 257 108 61 324 314 304 36 317 290
307 303 296 293 293 292 292 290 279 297 317 324 292 269 246 214 229 213 231 245 229 184 201 190 220 232 182 211 227 214 264 154 165 201 310 40 251 307 326 41 162 248 178 204 271 292 241
316 312 310 307 301 294 291 292 287 269 283 302 284 282 233 207 244 253 259 224 220 213 249 206 218 148 178 233 227 250 222 171 181 203 168 93 272 229 241 278 324 291 286 296 195 259 282
331 324 321 322 320 311 300 292 282 248 252 233 210 248 258 210 237 230 235 271 198 204 222 196 215 207 187 223 198 218 224 214 175 184 183 217 261 250 263 285 282 277 280 272 235 225 235
334 334 337 331 323 332 325 304 286 261 247 227 251 249 286 282 274 259 215 221 229 226 168 217 237 206 214 218 206 170 178 185 230 152 195 175 270 295 279 265 283 273 270 255 235 236 261
335 337 336 332 333 334 325 312 290 282 245 256 257 257 268 247 266 258 230 245 254 232 220 231 211 217 208 226 234 298 274 255 235 166 196 177 217 349 273 352 314 298 352 1 123 47 235
326 334 327 318 323 327 327 317 293 281 269 283 280 292 267 261 242 243 264 256 259 242 242 259 220 211 185 208 209 259 246 242 236 229 212 203 176 212 281 317 355 240 28 7 100 36 354
317 319 324 324 323 330 332 334 320 298 288 282 296 296 277 271 264 260 257 258 272 273 259 253 247 247 189 139 162 251 198 246 221 76 219 183 237 248 246 295 281 40 69 41 228 92 19
310 313 314 322 321 320 323 331 333 314 284 283 289 281 267 279 251 262 269 265 259 258 251 215 217 180 177 185 174 208 219 211 194 139 338 235 231 208 188 230 251 216 158 143 292 221 78
304 305 305 308 312 316 316 321 323 321 316 289 278 279 272 261 264 260 256 258 243 255 258 216 162 184 194 202 201 201 229 177 172 181 176 165 181 212 219 251 280 178 148 145 162 187 101
299 296 297 298 302 307 306 313 319 316 313 311 295 278 275 268 270 250 251 241 252 265 241 188 121 198 164 209 188 204 218 201 207 162 173 165 163 191 186 204 250 157 133 197 151 136 128
290 284 288 291 292 295 298 303 312 308 306 307 296 294 283 277 260 273 255 244 237 241 282 216 214 166 188 183 204 210 196 155 180 220 183 194 188 177 185 212 145 163 144 147 147 137 145
Height
1562 1561 1560 1560 1559 1558 1557 1556 1554 1552 1550 1547 1546 1544 1543 1543 1542 1541 1540 1540 1540 1539 1538 1536 1535 1532 1529 1529 1529 1526 1524 1522 1520 1518 1518 1517 1516 1515 1513 1513 1510 1506 1504 1501 1499 1499 1498
1564 1563 1562 1561 1560 1559 1558 1557 1555 1553 1551 1548 1545 1543 1543 1542 1541 1539 1538 1538 1538 1538 1538 1536 1535 1533 1530 1530 1528 1525 1524 1521 1521 1519 1519 1517 1517 1517 1514 1512 1511 1507 1505 1502 1498 1497 1496
1565 1564 1563 1562 1561 1560 1559 1558 1556 1554 1551 1548 1546 1544 1542 1540 1539 1537 1536 1536 1536 1536 1536 1535 1534 1532 1531 1531 1527 1525 1523 1521 1520 1519 1519 1517 1515 1516 1515 1511 1508 1506 1503 1497 1491 1490 1491
1565 1565 1563 1563 1562 1561 1560 1559 1557 1555 1552 1549 1546 1544 1542 1539 1537 1536 1535 1534 1535 1535 1535 1534 1533 1532 1530 1528 1525 1523 1522 1521 1521 1519 1518 1516 1515 1515 1514 1511 1507 1504 1500 1499 1487 1487 1486
1566 1565 1564 1564 1563 1561 1560 1559 1557 1555 1553 1550 1547 1544 1541 1539 1537 1535 1534 1534 1534 1534 1534 1534 1533 1532 1529 1527 1525 1523 1522 1520 1519 1518 1516 1516 1516 1514 1512 1511 1508 1510 1508 1496 1488 1482 1482
1568 1568 1566 1565 1564 1563 1562 1560 1559 1556 1554 1551 1547 1544 1542 1539 1537 1535 1534 1534 1534 1533 1533 1532 1532 1535 1530 1527 1524 1522 1520 1519 1517 1516 1514 1515 1513 1510 1508 1507 1510 1502 1499 1494 1494 1483 1478
1569 1568 1567 1566 1565 1564 1562 1560 1558 1557 1554 1551 1548 1545 1542 1540 1538 1536 1535 1534 1536 1535 1533 1531 1531 1529 1527 1525 1522 1520 1520 1518 1517 1516 1513 1509 1512 1507 1501 1499 1498 1497 1493 1490 1481 1481 1478
1569 1568 1567 1566 1564 1564 1562 1560 1558 1556 1554 1551 1548 1545 1542 1540 1539 1537 1536 1536 1537 1537 1533 1529 1529 1527 1526 1524 1522 1520 1520 1520 1517 1515 1508 1507 1509 1497 1496 1494 1493 1490 1487 1483 1472 1473 1476
1568 1567 1567 1566 1564 1563 1562 1560 1558 1556 1554 1551 1548 1545 1543 1540 1538 1538 1536 1537 1537 1536 1534 1527 1527 1526 1526 1524 1522 1520 1520 1518 1514 1511 1507 1510 1499 1495 1494 1491 1489 1485 1482 1480 1479 1470 1472
1568 1567 1566 1565 1564 1562 1561 1560 1557 1556 1553 1551 1548 1546 1543 1540 1540 1538 1537 1537 1536 1536 1536 1526 1525 1525 1525 1523 1521 1518 1517 1519 1513 1509 1505 1502 1493 1493 1493 1490 1487 1490 1476 1476 1474 1476 1488
1567 1566 1565 1564 1563 1562 1560 1559 1556 1555 1553 1550 1548 1545 1543 1540 1539 1538 1538 1535 1536 1536 1545 1526 1524 1522 1521 1523 1520 1517 1517 1516 1513 1509 1510 1505 1494 1496 1494 1486 1486 1484 1474 1474 1471 1474 1473
1566 1565 1564 1563 1561 1560 1559 1557 1555 1553 1551 1549 1547 1545 1542 1541 1540 1539 1537 1536 1536 1542 1542 1524 1523 1522 1520 1518 1517 1516 1516 1515 1511 1508 1502 1499 1492 1494 1490 1486 1483 1479 1476 1462 1462 1469 1491
1565 1563 1562 1560 1559 1558 1556 1555 1553 1551 1549 1547 1546 1543 1541 1540 1539 1538 1537 1537 1541 1546 1527 1525 1524 1521 1521 1518 1515 1516 1515 1515 1516 1522 1509 1497 1488 1490 1492 1489 1478 1481 1482 1495 1494 1494 1485
1564 1562 1560 1559 1558 1556 1554 1552 1551 1548 1546 1544 1542 1541 1539 1538 1537 1537 1537 1538 1545 1529 1521 1524 1524 1523 1522 1519 1515 1514 1515 1514 1515 1515 1517 1515 1512 1490 1491 1491 1492 1488 1486 1507 1503 1502 1492
1561 1559 1558 1557 1556 1554 1552 1551 1549 1547 1544 1542 1540 1537 1536 1535 1535 1536 1538 1542 1534 1521 1523 1524 1521 1523 1518 1519 1520 1516 1511 1513 1513 1514 1521 1518 1502 1490 1490 1490 1492 1486 1490 1485 1493 1480 1499
1558 1556 1555 1554 1552 1550 1549 1548 1546 1545 1543 1540 1538 1536 1533 1533 1533 1535 1536 1534 1522 1522 1523 1523 1524 1524 1522 1518 1521 1515 1510 1512 1514 1516 1516 1514 1519 1489 1489 1490 1490 1492 1488 1498 1495 1503 1493
1554 1553 1551 1550 1548 1547 1546 1544 1544 1542 1541 1539 1538 1535 1533 1533 1533 1534 1535 1527 1518 1519 1521 1522 1519 1521 1520 1520 1519 1518 1513 1513 1512 1513 1515 1514 1514 1500 1488 1489 1489 1491 1489 1487 1487 1490 1505
1549 1548 1547 1545 1544 1543 1543 1541 1541 1539 1538 1538 1537 1535 1530 1531 1535 1529 1526 1518 1518 1518 1520 1520 1520 1516 1516 1517 1519 1516 1513 1509 1512 1513 1513 1513 1514 1515 1491 1487 1488 1489 1488 1488 1499 1495 1493
1546 1544 1542 1542 1541 1540 1538 1536 1537 1537 1536 1536 1535 1531 1528 1528 1530 1524 1518 1517 1516 1516 1516 1517 1516 1515 1514 1515 1518 1513 1511 1511 1511 1513 1513 1513 1513 1522 1491 1493 1489 1489 1485 1486 1490 1490 1495
1543 1541 1540 1539 1536 1537 1534 1533 1532 1534 1535 1536 1536 1530 1525 1524 1521 1519 1515 1510 1512 1511 1512 1512 1511 1513 1515 1515 1511 1509 1510 1509 1511 1512 1513 1514 1512 1509 1513 1498 1496 1494 1487 1488 1489 1505 1486
1542 1539 1537 1535 1534 1533 1530 1529 1529 1531 1531 1533 1530 1525 1518 1517 1516 1515 1512 1506 1504 1509 1509 1509 1508 1508 1509 1511 1507 1509 1507 1507 1509 1512 1513 1514 1514 1506 1500 1496 1492 1490 1485 1483 1487 1485 1489
1540 1538 1535 1534 1532 1531 1528 1526 1526 1527 1528 1527 1526 1524 1518 1513 1512 1509 1510 1502 1501 1501 1503 1505 1505 1498 1503 1504 1500 1501 1502 1504 1503 1510 1512 1511 1513 1504 1499 1489 1486 1485 1476 1475 1474 1477 1476
1537 1537 1535 1532 1530 1528 1526 1524 1524 1524 1524 1522 1522 1521 1520 1508 1508 1504 1501 1498 1496 1497 1493 1493 1493 1496 1496 1492 1493 1495 1496 1497 1499 1504 1509 1511 1511 1508 1502 1489 1487 1482 1473 1467 1469 1471 1472
1534 1533 1532 1530 1527 1525 1523 1521 1520 1520 1521 1521 1521 1521 1516 1500 1503 1497 1496 1494 1492 1493 1492 1489 1490 1491 1490 1490 1492 1493 1494 1496 1496 1496 1500 1504 1507 1509 1509 1496 1499 1474 1472 1471 1471 1475 1474
1531 1530 1528 1526 1524 1522 1520 1519 1517 1516 1517 1517 1518 1519 1515 1498 1496 1489 1492 1491 1490 1487 1486 1487 1488 1488 1487 1489 1493 1494 1495 1495 1492 1497 1496 1500 1504 1507 1512 1502 1483 1469 1472 1472 1472 1476 1475
1527 1525 1524 1522 1521 1519 1518 1516 1514 1513 1512 1511 1510 1512 1512 1504 1471 1491 1490 1485 1483 1483 1482 1479 1482 1484 1487 1487 1490 1492 1491 1483 1495 1499 1500 1500 1501 1505 1501 1503 1488 1470 1470 1470 1472 1473 1473
1523 1521 1520 1518 1516 1515 1513 1511 1510 1508 1507 1506 1503 1505 1504 1493 1461 1488 1477 1477 1478 1477 1469 1474 1476 1481 1483 1482 1487 1487 1482 1472 1485 1487 1502 1502 1502 1502 1504 1501 1485 1465 1468 1469 1476 1478 1474
1518 1517 1516 1515 1514 1511 1508 1506 1504 1503 1500 1498 1494 1498 1496 1487 1453 1472 1470 1468 1470 1470 1468 1466 1474 1475 1478 1480 1478 1473 1470 1468 1467 1466 1477 1483 1491 1495 1494 1496 1489 1462 1467 1470 1465 1468 1471
1514 1513 1512 1510 1508 1505 1502 1500 1498 1498 1495 1492 1484 1487 1486 1476 1444 1452 1445 1446 1457 1459 1464 1458 1453 1454 1456 1463 1460 1457 1461 1460 1458 1465 1459 1470 1461 1471 1471 1468 1460 1460 1460 1462 1463 1464 1467